This is the latest recevied weather packets stored in our database for station/object KK4WXG. If no packets are shown the sender has not sent any weather packets the latest 10 day(s).
| Time | Temp. | Humidity | Pressure | Rain* | Wind** | Luminosity | Snow |
|---|---|---|---|---|---|---|---|
| 1777743384 | 13.89° C | 44% | 1013.4 hPa | 0 mm | - | 311 W/m² | - |
| 1777743082 | 13.89° C | 42% | 1013.4 hPa | 0 mm | - | 1293 W/m² | - |
| 1777742779 | 13.33° C | 46% | 1013.5 hPa | 0 mm | - | 540 W/m² | - |
| 1777742475 | 12.78° C | 44% | 1013.5 hPa | 0 mm | - | 424 W/m² | - |
| 1777742171 | 13.33° C | 42% | 1013.4 hPa | 0 mm | - | 343 W/m² | - |
| 1777741868 | 13.33° C | 44% | 1013.6 hPa | 0 mm | - | 334 W/m² | - |
| 1777741565 | 13.33° C | 43% | 1013.3 hPa | 0 mm | - | 358 W/m² | - |
| 1777741262 | 14.44° C | 41% | 1013.5 hPa | 0 mm | - | 373 W/m² | - |
| 1777740958 | 13.33° C | 44% | 1013.7 hPa | 0 mm | - | 1289 W/m² | - |
| 1777740656 | 12.22° C | 44% | 1013.8 hPa | 0 mm | - | 319 W/m² | - |
| 1777740352 | 13.33° C | 44% | 1013.7 hPa | 0 mm | - | 247 W/m² | - |
| 1777740049 | 13.89° C | 51% | 1013.7 hPa | 0 mm | - | 419 W/m² | - |
| 1777739745 | 12.22° C | 51% | 1013.9 hPa | 0 mm | - | 1182 W/m² | - |
| 1777739442 | 12.78° C | 45% | 1014 hPa | 0 mm | - | 228 W/m² | - |
| 1777739139 | 13.33° C | 45% | 1013.9 hPa | 0 mm | - | 275 W/m² | - |
| 1777738836 | 13.89° C | 46% | 1014.1 hPa | 0 mm | - | 1155 W/m² | - |
| 1777738532 | 13.33° C | 45% | 1013.8 hPa | 0 mm | - | 1043 W/m² | - |
| 1777738230 | 13.33° C | 49% | 1014 hPa | 0 mm | - | 1167 W/m² | - |
| 1777737928 | 13.89° C | 45% | 1013.9 hPa | 0 mm | - | 704 W/m² | - |
| 1777737626 | 13.89° C | 50% | 1014 hPa | 0 mm | - | 1108 W/m² | - |
| 1777737325 | 13.89° C | 47% | 1014 hPa | 0 mm | - | 1036 W/m² | - |
| 1777737021 | 13.89° C | 47% | 1014 hPa | 0 mm | - | 914 W/m² | - |
| 1777736717 | 12.78° C | 45% | 1014.2 hPa | 0 mm | - | 1013 W/m² | - |
| 1777736078 | 12.78° C | 48% | 1014.1 hPa | 0 mm | - | 971 W/m² | - |
| 1777735774 | 12.78° C | 46% | 1014.1 hPa | 0 mm | - | 1030 W/m² | - |
* Rain latest hour (hover to see other rain measurements)
** Current wind speed in m/s (hover to see current wind gust speed)